Location: Colonia Mina de C?rbuni
(46.1667°N, 22.7167°E)
Time: 18:10:32
(UTC+00:00)

CZ-4B R/B - Pass Details

Date: 04 February 2023
Orbit: 809 x 881 km, 99.0° (Epoch: 29 March)

Event Time Altitude Azimuth Distance (km) Brightness Sun altitude
Rises 17:33:49 0° 170° (S) 3,331 6.2 -20.3°
Reaches altitude 10° 17:36:09 10° 172° (S) 2,410 5.5 -20.7°
Maximum altitude 17:41:28 71° 257° (WSW) 878 3.4 -21.6°
Drops below altitude 10° 17:46:56 10° 341° (NNW) 2,472 5.8 -22.6°
Sets 17:49:21 0° 344° (NNW) 3,423 6.6 -23.0°
